• In Netherlands
  • List of Countries
  • For 7 days
  • Water Temperature
  • Satellite Maps
  • Weather Map
  • Weather Widgets
  • user-avatar
    Login

    Hourly Weather Yeghegnadzor

    Today, 23 January, Monday

    Time Temperature Precipitation Wind Pressure Humidity
    00:00 -15°C° 0 mm 1 mps 651 mmHg 95%
    01:00 -15°C° 0 mm 1 mps 651 mmHg 95%
    02:00 -15°C° 0 mm 1 mps 652 mmHg 94%
    03:00 -14°C° 0 mm 1 mps 652 mmHg 94%
    04:00 -14°C° 0 mm 1 mps 652 mmHg 93%
    05:00 -14°C° 0 mm 1 mps 653 mmHg 93%
    06:00 -14°C° 0 mm 1 mps 653 mmHg 92%
    07:00 -11°C° 0 mm 1 mps 654 mmHg 91%
    08:00 -8°C° 0 mm 1 mps 655 mmHg 89%
    09:00 -4°C° 0 mm 1 mps 657 mmHg 88%
    10:00 -3°C° 0 mm 1 mps 657 mmHg 87%
    11:00 -2°C° 0 mm 1 mps 657 mmHg 87%
    12:00 0°C° 0 mm 1 mps 657 mmHg 86%
    13:00 0°C° 0 mm 1 mps 657 mmHg 87%
    14:00 0°C° 0 mm 1 mps 656 mmHg 88%
    15:00 0°C° 0 mm 1 mps 656 mmHg 90%
    16:00 -4°C° 0 mm 0 mps 655 mmHg 92%
    17:00 -8°C° 0 mm 0 mps 654 mmHg 94%
    18:00 -11°C° 0 mm 0 mps 653 mmHg 97%
    19:00 -12°C° 0 mm 0 mps 653 mmHg 97%
    20:00 -12°C° 0 mm 1 mps 653 mmHg 96%
    21:00 -13°C° 0 mm 1 mps 653 mmHg 96%
    22:00 -13°C° 0 mm 1 mps 653 mmHg 96%
    23:00 -13°C° 0 mm 1 mps 653 mmHg 95%

    Tomorrow, 24 January, Tuesday

    Time Temperature Precipitation Wind Pressure Humidity
    00:00 -13°C° 0 mm 1 mps 653 mmHg 95%
    01:00 -13°C° 0 mm 1 mps 654 mmHg 94%
    02:00 -13°C° 0 mm 1 mps 654 mmHg 94%
    03:00 -12°C° 0 mm 1 mps 654 mmHg 93%
    04:00 -12°C° 0 mm 1 mps 654 mmHg 92%
    05:00 -12°C° 0 mm 1 mps 654 mmHg 92%
    06:00 -12°C° 0 mm 1 mps 654 mmHg 91%
    07:00 -9°C° 0 mm 1 mps 656 mmHg 90%
    08:00 -7°C° 0 mm 1 mps 657 mmHg 89%
    09:00 -3°C° 0 mm 1 mps 658 mmHg 88%
    10:00 -2°C° 0 mm 1 mps 658 mmHg 88%
    11:00 0°C° 0 mm 1 mps 658 mmHg 87%
    12:00 +1°C° 0 mm 1 mps 658 mmHg 86%
    13:00 +1°C° 0 mm 1 mps 657 mmHg 88%
    14:00 +1°C° 0 mm 1 mps 657 mmHg 89%
    15:00 +2°C° 0 mm 1 mps 657 mmHg 91%
    16:00 -1°C° 0 mm 1 mps 655 mmHg 92%
    17:00 -4°C° 0 mm 1 mps 654 mmHg 94%
    18:00 -8°C° 0 mm 1 mps 653 mmHg 96%
    19:00 -9°C° 0 mm 1 mps 653 mmHg 94%
    20:00 -10°C° 0 mm 1 mps 653 mmHg 92%
    21:00 -12°C° 0 mm 2 mps 653 mmHg 91%
    22:00 -12°C° 0 mm 2 mps 652 mmHg 89%
    23:00 -13°C° 0 mm 2 mps 652 mmHg 87%

    Day after tomorrow, 25 January, Wednesday

    Time Temperature Precipitation Wind Pressure Humidity
    00:00 -13°C° 0 mm 2 mps 652 mmHg 85%
    01:00 -13°C° 0 mm 2 mps 651 mmHg 85%
    02:00 -12°C° 0 mm 2 mps 651 mmHg 85%
    03:00 -12°C° 0 mm 2 mps 651 mmHg 84%
    04:00 -12°C° 0 mm 2 mps 650 mmHg 84%
    05:00 -12°C° 0 mm 2 mps 650 mmHg 84%
    06:00 -12°C° 0 mm 2 mps 650 mmHg 83%
    07:00 -9°C° 0 mm 2 mps 650 mmHg 83%
    08:00 -7°C° 0 mm 2 mps 651 mmHg 83%
    09:00 -5°C° 0 mm 2 mps 651 mmHg 83%
    10:00 -4°C° 0 mm 2 mps 651 mmHg 83%
    11:00 -2°C° 0 mm 2 mps 650 mmHg 83%
    12:00 -1°C° 0 mm 2 mps 650 mmHg 83%
    13:00 -1°C° 0 mm 2 mps 649 mmHg 85%
    14:00 -1°C° 0 mm 2 mps 649 mmHg 86%
    15:00 -1°C° 0 mm 2 mps 648 mmHg 88%
    16:00 -2°C° 0 mm 2 mps 648 mmHg 88%
    17:00 -4°C° 0 mm 2 mps 648 mmHg 88%
    18:00 -5°C° 0 mm 2 mps 648 mmHg 88%
    19:00 -5°C° 0.1 mm 2 mps 648 mmHg 89%
    20:00 -5°C° 0.1 mm 2 mps 648 mmHg 89%
    21:00 -4°C° 0.1 mm 2 mps 648 mmHg 89%
    22:00 -4°C° 0.2 mm 2 mps 648 mmHg 90%
    23:00 -4°C° 0.2 mm 2 mps 647 mmHg 91%

    26 January, Thursday

    Time Temperature Precipitation Wind Pressure Humidity
    00:00 -3°C° 0.2 mm 2 mps 647 mmHg 92%
    01:00 -3°C° 0.3 mm 2 mps 647 mmHg 92%
    02:00 -3°C° 0.3 mm 2 mps 647 mmHg 92%
    03:00 -3°C° 0.3 mm 2 mps 647 mmHg 93%
    04:00 -3°C° 0.3 mm 2 mps 647 mmHg 93%
    05:00 -3°C° 0.3 mm 2 mps 647 mmHg 93%
    06:00 -3°C° 0.3 mm 2 mps 647 mmHg 93%
    07:00 -3°C° 0.3 mm 2 mps 647 mmHg 93%
    08:00 -2°C° 0.3 mm 2 mps 647 mmHg 93%
    09:00 -2°C° 0.3 mm 2 mps 647 mmHg 92%
    10:00 -1°C° 0.4 mm 2 mps 647 mmHg 92%
    11:00 -1°C° 0.4 mm 2 mps 647 mmHg 91%
    12:00 +1°C° 0.4 mm 2 mps 646 mmHg 91%
    13:00 +1°C° 0.4 mm 2 mps 646 mmHg 91%
    14:00 +1°C° 0.4 mm 2 mps 646 mmHg 92%
    15:00 +2°C° 0.4 mm 1 mps 645 mmHg 92%
    16:00 +1°C° 0.3 mm 1 mps 645 mmHg 93%
    17:00 0°C° 0.3 mm 1 mps 645 mmHg 93%
    18:00 -1°C° 0.3 mm 1 mps 645 mmHg 94%
    19:00 -1°C° 0.3 mm 1 mps 645 mmHg 94%
    20:00 -1°C° 0.3 mm 1 mps 646 mmHg 94%
    21:00 -1°C° 0.3 mm 1 mps 646 mmHg 93%
    22:00 -1°C° 0.3 mm 1 mps 646 mmHg 94%
    23:00 -1°C° 0.3 mm 1 mps 646 mmHg 94%

    27 January, Friday

    Time Temperature Precipitation Wind Pressure Humidity
    00:00 -1°C° 0.3 mm 1 mps 646 mmHg 94%
    01:00 -1°C° 0.5 mm 1 mps 646 mmHg 94%
    02:00 -1°C° 0.5 mm 1 mps 646 mmHg 95%
    03:00 -1°C° 0.5 mm 1 mps 646 mmHg 95%
    04:00 -1°C° 0.6 mm 1 mps 646 mmHg 95%
    05:00 -1°C° 0.6 mm 1 mps 647 mmHg 95%
    06:00 -1°C° 0.6 mm 1 mps 647 mmHg 95%
    07:00 -1°C° 0.5 mm 1 mps 647 mmHg 95%
    08:00 0°C° 0.5 mm 1 mps 648 mmHg 94%
    09:00 0°C° 0.5 mm 1 mps 648 mmHg 93%
    10:00 +1°C° 0.5 mm 1 mps 648 mmHg 93%
    11:00 +1°C° 0.5 mm 1 mps 648 mmHg 93%
    12:00 +2°C° 0.5 mm 1 mps 647 mmHg 92%
    13:00 +2°C° 0.6 mm 1 mps 647 mmHg 93%
    14:00 +2°C° 0.6 mm 1 mps 647 mmHg 93%
    15:00 +2°C° 0.6 mm 1 mps 647 mmHg 93%
    16:00 +1°C° 0.4 mm 1 mps 647 mmHg 94%
    17:00 0°C° 0.4 mm 1 mps 647 mmHg 95%
    18:00 -1°C° 0.4 mm 1 mps 647 mmHg 97%
    19:00 -1°C° 0.3 mm 1 mps 647 mmHg 96%
    20:00 -2°C° 0.3 mm 1 mps 647 mmHg 96%
    21:00 -2°C° 0.3 mm 1 mps 648 mmHg 95%
    22:00 -2°C° 0.3 mm 1 mps 648 mmHg 95%
    23:00 -2°C° 0.3 mm 1 mps 647 mmHg 95%

    28 January, Saturday

    Time Temperature Precipitation Wind Pressure Humidity
    00:00 -4°C° 0.3 mm 2 mps 647 mmHg 94%
    01:00 -4°C° 0.4 mm 2 mps 647 mmHg 94%
    02:00 -4°C° 0.4 mm 2 mps 647 mmHg 94%
    03:00 -4°C° 0.4 mm 2 mps 647 mmHg 94%
    04:00 -4°C° 0.6 mm 2 mps 647 mmHg 94%
    05:00 -4°C° 0.6 mm 2 mps 647 mmHg 94%
    06:00 -4°C° 0.6 mm 2 mps 647 mmHg 94%
    07:00 -3°C° 0.4 mm 2 mps 647 mmHg 94%
    08:00 -3°C° 0.4 mm 2 mps 648 mmHg 93%
    09:00 -2°C° 0.4 mm 2 mps 648 mmHg 93%
    10:00 -2°C° 0.4 mm 2 mps 648 mmHg 92%
    11:00 -1°C° 0.4 mm 2 mps 648 mmHg 91%
    12:00 +1°C° 0.4 mm 2 mps 648 mmHg 91%
    13:00 +1°C° 0.7 mm 2 mps 648 mmHg 91%
    14:00 +1°C° 0.7 mm 2 mps 647 mmHg 92%
    15:00 +1°C° 0.7 mm 2 mps 647 mmHg 93%
    16:00 +1°C° 0.7 mm 1 mps 647 mmHg 94%
    17:00 0°C° 0.7 mm 1 mps 647 mmHg 94%
    18:00 0°C° 0.7 mm 1 mps 647 mmHg 95%
    19:00 0°C° 0.9 mm 1 mps 647 mmHg 95%
    20:00 -3°C° 0.9 mm 2 mps 647 mmHg 95%
    21:00 -3°C° 0.9 mm 2 mps 647 mmHg 95%
    22:00 -3°C° 0.9 mm 2 mps 647 mmHg 95%
    23:00 -3°C° 0.9 mm 2 mps 647 mmHg 95%
    Show more